Time,TemperatureF,DewpointF,PressureIn,WindDirection,WindDirectionDegrees,WindSpeedMPH,WindSpeedGustMPH,Humidity,HourlyPrecipIn,Conditions,Clouds,dailyrainin,SoftwareType,DateUTC
2013-06-15 00:01:00,55.0,49.0,29.75,North,360,1.0,1.0,79,0.00,,,0.00,Rainwise IP-100,2013-06-15 04:01:00,
2013-06-15 00:06:00,55.9,49.0,29.75,WNW,292,6.0,0.0,77,0.00,,,0.00,Rainwise IP-100,2013-06-15 04:06:00,
2013-06-15 00:11:00,55.9,48.0,29.75,WNW,292,1.0,9.0,76,0.00,,,0.00,Rainwise IP-100,2013-06-15 04:11:00,
2013-06-15 00:16:00,55.3,47.0,29.75,SSW,202,2.0,5.0,76,0.00,,,0.00,Rainwise IP-100,2013-06-15 04:16:00,
2013-06-15 00:21:00,54.8,47.0,29.75,SSE,157,4.0,7.0,76,0.00,,,0.00,Rainwise IP-100,2013-06-15 04:21:00,
2013-06-15 00:26:00,54.2,47.0,29.76,SSE,157,4.0,6.0,77,0.00,,,0.00,Rainwise IP-100,2013-06-15 04:26:00,
2013-06-15 00:31:00,53.8,47.0,29.75,ESE,112,4.0,7.0,79,0.00,,,0.00,Rainwise IP-100,2013-06-15 04:31:00,
2013-06-15 00:36:00,53.5,47.0,29.75,WSW,247,5.0,7.0,81,0.00,,,0.00,Rainwise IP-100,2013-06-15 04:36:00,
2013-06-15 00:41:00,53.1,47.0,29.76,SSE,157,5.0,6.0,82,0.00,,,0.00,Rainwise IP-100,2013-06-15 04:41:00,
2013-06-15 00:46:00,52.7,48.0,29.75,SSE,157,4.0,0.0,84,0.00,,,0.00,Rainwise IP-100,2013-06-15 04:46:00,
2013-06-15 00:51:00,52.4,48.0,29.76,ESE,112,3.0,7.0,86,0.00,,,0.00,Rainwise IP-100,2013-06-15 04:51:00,
2013-06-15 00:56:00,52.2,48.0,29.75,SE,135,9.0,0.0,87,0.00,,,0.00,Rainwise IP-100,2013-06-15 04:56:00,
2013-06-15 01:01:00,52.1,48.0,29.75,SSE,157,3.0,9.0,87,0.00,,,0.00,Rainwise IP-100,2013-06-15 05:01:00,
2013-06-15 01:06:00,52.0,48.0,29.75,SSE,157,4.0,7.0,88,0.00,,,0.00,Rainwise IP-100,2013-06-15 05:06:00,
2013-06-15 01:11:00,51.9,48.0,29.75,SSW,202,0.0,6.0,88,0.00,,,0.00,Rainwise IP-100,2013-06-15 05:11:00,
2013-06-15 01:16:00,51.8,48.0,29.75,SSW,202,0.0,0.0,88,0.00,,,0.00,Rainwise IP-100,2013-06-15 05:16:00,
2013-06-15 01:21:00,51.5,48.0,29.76,ENE,67,0.0,1.0,88,0.00,,,0.00,Rainwise IP-100,2013-06-15 05:21:00,
2013-06-15 01:26:00,51.3,47.0,29.76,ENE,67,0.0,0.0,88,0.00,,,0.00,Rainwise IP-100,2013-06-15 05:26:00,
2013-06-15 01:31:00,51.2,48.0,29.76,SSE,157,0.0,0.0,89,0.00,,,0.00,Rainwise IP-100,2013-06-15 05:31:00,
2013-06-15 01:36:00,51.2,48.0,29.76,SSE,157,0.0,1.0,90,0.00,,,0.00,Rainwise IP-100,2013-06-15 05:36:00,
2013-06-15 01:41:00,51.2,48.0,29.76,SSE,157,2.0,2.0,90,0.00,,,0.00,Rainwise IP-100,2013-06-15 05:41:00,
2013-06-15 01:46:00,51.1,48.0,29.76,South,180,0.0,2.0,90,0.00,,,0.00,Rainwise IP-100,2013-06-15 05:46:00,
2013-06-15 01:51:00,51.1,48.0,29.76,SE,135,0.0,2.0,90,0.00,,,0.00,Rainwise IP-100,2013-06-15 05:51:00,
2013-06-15 01:56:00,51.0,48.0,29.76,SE,135,0.0,2.0,90,0.00,,,0.00,Rainwise IP-100,2013-06-15 05:56:00,
2013-06-15 02:00:00,50.9,48.0,29.76,ESE,112,2.0,2.0,90,0.00,,,0.00,Rainwise IP-100,2013-06-15 06:00:00,
2013-06-15 02:05:00,50.9,48.0,29.76,ESE,112,0.0,2.0,90,0.00,,,0.00,Rainwise IP-100,2013-06-15 06:05:00,
2013-06-15 02:10:00,50.8,48.0,29.76,WSW,247,0.0,3.0,91,0.00,,,0.00,Rainwise IP-100,2013-06-15 06:10:00,
2013-06-15 02:15:00,50.4,48.0,29.76,NNE,22,2.0,2.0,91,0.00,,,0.00,Rainwise IP-100,2013-06-15 06:15:00,
2013-06-15 02:20:00,50.1,47.0,29.76,WNW,292,0.0,2.0,92,0.00,,,0.00,Rainwise IP-100,2013-06-15 06:20:00,
2013-06-15 02:25:00,50.0,47.0,29.76,WSW,247,2.0,2.0,92,0.00,,,0.00,Rainwise IP-100,2013-06-15 06:25:00,
2013-06-15 02:30:00,49.8,47.0,29.76,WSW,247,0.0,2.0,93,0.00,,,0.00,Rainwise IP-100,2013-06-15 06:30:00,
2013-06-15 02:35:00,49.7,47.0,29.75,NNW,337,0.0,2.0,93,0.00,,,0.00,Rainwise IP-100,2013-06-15 06:35:00,
2013-06-15 02:40:00,49.9,48.0,29.75,NNE,22,0.0,2.0,94,0.00,,,0.00,Rainwise IP-100,2013-06-15 06:40:00,
2013-06-15 02:45:00,50.4,49.0,29.75,NW,315,0.0,3.0,94,0.00,,,0.00,Rainwise IP-100,2013-06-15 06:45:00,
2013-06-15 02:50:00,50.6,49.0,29.75,NW,315,0.0,1.0,94,0.00,,,0.00,Rainwise IP-100,2013-06-15 06:50:00,
2013-06-15 02:55:00,50.6,49.0,29.75,NNE,22,0.0,2.0,94,0.00,,,0.00,Rainwise IP-100,2013-06-15 06:55:00,
2013-06-15 03:00:00,51.0,50.0,29.75,ESE,112,4.0,5.0,94,0.00,,,0.00,Rainwise IP-100,2013-06-15 07:00:00,
2013-06-15 03:05:00,51.8,50.0,29.75,SSW,202,3.0,6.0,93,0.00,,,0.00,Rainwise IP-100,2013-06-15 07:05:00,
2013-06-15 03:10:00,52.8,50.0,29.74,SSW,202,5.0,7.0,93,0.00,,,0.00,Rainwise IP-100,2013-06-15 07:10:00,
2013-06-15 03:15:00,53.4,51.0,29.75,SW,225,0.0,7.0,92,0.00,,,0.00,Rainwise IP-100,2013-06-15 07:15:00,
2013-06-15 03:20:00,53.8,50.0,29.75,SSE,157,2.0,7.0,91,0.00,,,0.00,Rainwise IP-100,2013-06-15 07:20:00,
2013-06-15 03:25:00,54.0,51.0,29.75,WSW,247,3.0,5.0,91,0.00,,,0.00,Rainwise IP-100,2013-06-15 07:25:00,
2013-06-15 03:30:00,54.2,51.0,29.75,NNW,337,5.0,6.0,91,0.00,,,0.00,Rainwise IP-100,2013-06-15 07:30:00,
2013-06-15 03:35:00,54.2,51.0,29.75,WNW,292,2.0,5.0,91,0.00,,,0.00,Rainwise IP-100,2013-06-15 07:35:00,
2013-06-15 03:40:00,54.2,51.0,29.75,WNW,292,3.0,4.0,91,0.00,,,0.00,Rainwise IP-100,2013-06-15 07:40:00,
2013-06-15 03:45:00,54.4,53.0,29.76,WNW,292,1.0,5.0,92,0.00,,,0.00,Rainwise IP-100,2013-06-15 07:45:00,
2013-06-15 03:50:00,54.7,53.0,29.76,NW,315,3.0,0.0,92,0.00,,,0.00,Rainwise IP-100,2013-06-15 07:50:00,
2013-06-15 03:55:00,55.0,53.0,29.76,WSW,247,2.0,5.0,91,0.00,,,0.00,Rainwise IP-100,2013-06-15 07:55:00,
2013-06-15 04:00:00,55.1,53.0,29.76,SW,225,2.0,4.0,91,0.00,,,0.00,Rainwise IP-100,2013-06-15 08:00:00,
2013-06-15 04:05:00,54.9,53.0,29.76,WNW,292,2.0,5.0,91,0.00,,,0.00,Rainwise IP-100,2013-06-15 08:05:00,
2013-06-15 04:10:00,54.9,53.0,29.76,WSW,247,3.0,6.0,92,0.00,,,0.00,Rainwise IP-100,2013-06-15 08:10:00,
2013-06-15 04:15:00,54.9,53.0,29.76,WNW,292,1.0,9.0,92,0.00,,,0.00,Rainwise IP-100,2013-06-15 08:15:00,
2013-06-15 04:20:00,55.0,53.0,29.77,NW,315,3.0,7.0,92,0.00,,,0.00,Rainwise IP-100,2013-06-15 08:20:00,
2013-06-15 04:25:00,55.0,53.0,29.77,WNW,292,4.0,9.0,92,0.00,,,0.00,Rainwise IP-100,2013-06-15 08:25:00,
2013-06-15 04:30:00,55.0,53.0,29.77,NNW,337,1.0,1.0,92,0.00,,,0.00,Rainwise IP-100,2013-06-15 08:30:00,
2013-06-15 04:35:00,54.9,53.0,29.77,WNW,292,4.0,7.0,93,0.00,,,0.00,Rainwise IP-100,2013-06-15 08:35:00,
2013-06-15 04:38:00,54.8,53.0,29.77,WNW,292,4.0,7.0,93,0.00,,,0.00,Rainwise IP-100,2013-06-15 08:38:00,
2013-06-15 04:43:00,54.8,53.0,29.78,WNW,292,0.0,7.0,92,0.00,,,0.00,Rainwise IP-100,2013-06-15 08:43:00,
2013-06-15 04:48:00,54.8,52.0,29.78,WSW,247,4.0,8.0,91,0.00,,,0.00,Rainwise IP-100,2013-06-15 08:48:00,
2013-06-15 04:53:00,54.9,53.0,29.78,WNW,292,3.0,8.0,90,0.00,,,0.00,Rainwise IP-100,2013-06-15 08:53:00,
2013-06-15 04:58:00,54.9,52.0,29.78,West,270,4.0,7.0,89,0.00,,,0.00,Rainwise IP-100,2013-06-15 08:58:00,
2013-06-15 05:03:00,54.8,51.0,29.78,WSW,247,2.0,8.0,88,0.00,,,0.00,Rainwise IP-100,2013-06-15 09:03:00,
2013-06-15 05:08:00,54.8,51.0,29.78,WNW,292,5.0,7.0,88,0.00,,,0.00,Rainwise IP-100,2013-06-15 09:08:00,
2013-06-15 05:13:00,54.8,51.0,29.78,WSW,247,3.0,7.0,88,0.00,,,0.00,Rainwise IP-100,2013-06-15 09:13:00,
2013-06-15 05:18:00,54.8,50.0,29.79,WNW,292,0.0,6.0,87,0.00,,,0.00,Rainwise IP-100,2013-06-15 09:18:00,
2013-06-15 05:23:00,54.8,50.0,29.79,NW,315,2.0,7.0,87,0.00,,,0.00,Rainwise IP-100,2013-06-15 09:23:00,
2013-06-15 05:28:00,55.0,51.0,29.79,NNW,337,5.0,8.0,86,0.00,,,0.00,Rainwise IP-100,2013-06-15 09:28:00,
2013-06-15 05:33:00,55.1,50.0,29.79,NW,315,4.0,6.0,85,0.00,,,0.00,Rainwise IP-100,2013-06-15 09:33:00,
2013-06-15 05:38:00,55.3,50.0,29.79,NNW,337,6.0,8.0,85,0.00,,,0.00,Rainwise IP-100,2013-06-15 09:38:00,
2013-06-15 05:43:00,55.4,50.0,29.79,WNW,292,5.0,7.0,85,0.00,,,0.00,Rainwise IP-100,2013-06-15 09:43:00,
2013-06-15 05:48:00,55.4,50.0,29.79,WNW,292,5.0,7.0,85,0.00,,,0.00,Rainwise IP-100,2013-06-15 09:48:00,
2013-06-15 05:53:00,55.4,50.0,29.80,NNW,337,2.0,5.0,85,0.00,,,0.00,Rainwise IP-100,2013-06-15 09:53:00,
2013-06-15 05:58:00,55.5,51.0,29.80,WSW,247,1.0,6.0,84,0.00,,,0.00,Rainwise IP-100,2013-06-15 09:58:00,
2013-06-15 06:03:00,55.7,51.0,29.80,NNW,337,3.0,5.0,84,0.00,,,0.00,Rainwise IP-100,2013-06-15 10:03:00,
2013-06-15 06:08:00,55.9,50.0,29.80,NNW,337,6.0,7.0,83,0.00,,,0.00,Rainwise IP-100,2013-06-15 10:08:00,
2013-06-15 06:13:00,56.1,50.0,29.81,NNW,337,5.0,6.0,82,0.00,,,0.00,Rainwise IP-100,2013-06-15 10:13:00,
2013-06-15 06:18:00,56.1,50.0,29.81,WNW,292,5.0,8.0,81,0.00,,,0.00,Rainwise IP-100,2013-06-15 10:18:00,
2013-06-15 06:23:00,56.1,50.0,29.81,NNW,337,3.0,8.0,80,0.00,,,0.00,Rainwise IP-100,2013-06-15 10:23:00,
2013-06-15 06:28:00,56.3,50.0,29.81,WNW,292,1.0,6.0,79,0.00,,,0.00,Rainwise IP-100,2013-06-15 10:28:00,
2013-06-15 06:33:00,56.7,50.0,29.82,NNW,337,4.0,6.0,78,0.00,,,0.00,Rainwise IP-100,2013-06-15 10:33:00,
2013-06-15 06:38:00,57.1,50.0,29.82,NW,315,4.0,7.0,76,0.00,,,0.00,Rainwise IP-100,2013-06-15 10:38:00,
2013-06-15 06:43:00,57.3,49.0,29.82,NNW,337,4.0,7.0,75,0.00,,,0.00,Rainwise IP-100,2013-06-15 10:43:00,
2013-06-15 06:48:00,57.4,49.0,29.82,NNW,337,5.0,8.0,73,0.00,,,0.00,Rainwise IP-100,2013-06-15 10:48:00,
2013-06-15 06:53:00,57.5,49.0,29.82,North,360,4.0,4.0,73,0.00,,,0.00,Rainwise IP-100,2013-06-15 10:53:00,
2013-06-15 06:58:00,57.5,49.0,29.82,WNW,292,0.0,1.0,72,0.00,,,0.00,Rainwise IP-100,2013-06-15 10:58:00,
2013-06-15 07:03:00,57.6,48.0,29.83,NNW,337,7.0,7.0,71,0.00,,,0.00,Rainwise IP-100,2013-06-15 11:03:00,
2013-06-15 07:08:00,57.6,48.0,29.83,NW,315,7.0,7.0,71,0.00,,,0.00,Rainwise IP-100,2013-06-15 11:08:00,
2013-06-15 07:13:00,57.8,48.0,29.83,NNW,337,8.0,8.0,70,0.00,,,0.00,Rainwise IP-100,2013-06-15 11:13:00,
2013-06-15 07:18:00,58.2,48.0,29.83,NNW,337,8.0,8.0,69,0.00,,,0.00,Rainwise IP-100,2013-06-15 11:18:00,
2013-06-15 07:23:00,58.7,48.0,29.83,NW,315,6.0,6.0,67,0.00,,,0.00,Rainwise IP-100,2013-06-15 11:23:00,
2013-06-15 07:28:00,58.9,48.0,29.83,NNW,337,4.0,4.0,67,0.00,,,0.00,Rainwise IP-100,2013-06-15 11:28:00,
2013-06-15 07:33:00,59.1,47.0,29.83,NNW,337,6.0,6.0,66,0.00,,,0.00,Rainwise IP-100,2013-06-15 11:33:00,
2013-06-15 07:38:00,59.5,47.0,29.83,NNW,337,7.0,7.0,65,0.00,,,0.00,Rainwise IP-100,2013-06-15 11:38:00,
2013-06-15 07:43:00,59.8,47.0,29.83,NW,315,0.0,3.0,64,0.00,,,0.00,Rainwise IP-100,2013-06-15 11:43:00,
2013-06-15 07:48:00,60.0,47.0,29.83,WNW,292,6.0,6.0,63,0.00,,,0.00,Rainwise IP-100,2013-06-15 11:48:00,
2013-06-15 07:53:00,60.2,47.0,29.83,NNW,337,6.0,0.0,62,0.00,,,0.00,Rainwise IP-100,2013-06-15 11:53:00,
2013-06-15 07:58:00,60.4,47.0,29.84,NNW,337,9.0,9.0,63,0.00,,,0.00,Rainwise IP-100,2013-06-15 11:58:00,
2013-06-15 08:03:00,60.6,47.0,29.84,NNW,337,5.0,5.0,62,0.00,,,0.00,Rainwise IP-100,2013-06-15 12:03:00,
2013-06-15 08:08:00,60.7,47.0,29.84,NNW,337,7.0,7.0,61,0.00,,,0.00,Rainwise IP-100,2013-06-15 12:08:00,
2013-06-15 08:13:00,60.8,47.0,29.84,NW,315,8.0,8.0,61,0.00,,,0.00,Rainwise IP-100,2013-06-15 12:13:00,
2013-06-15 08:18:00,60.9,47.0,29.84,NNW,337,6.0,6.0,59,0.00,,,0.00,Rainwise IP-100,2013-06-15 12:18:00,
2013-06-15 08:23:00,60.9,47.0,29.84,NNW,337,3.0,3.0,60,0.00,,,0.00,Rainwise IP-100,2013-06-15 12:23:00,
2013-06-15 08:28:00,61.1,47.0,29.84,NW,315,4.0,0.0,61,0.00,,,0.00,Rainwise IP-100,2013-06-15 12:28:00,
2013-06-15 08:33:00,61.5,48.0,29.84,NW,315,4.0,7.0,61,0.00,,,0.00,Rainwise IP-100,2013-06-15 12:33:00,
2013-06-15 08:38:00,62.0,48.0,29.84,North,360,4.0,7.0,61,0.00,,,0.00,Rainwise IP-100,2013-06-15 12:38:00,
2013-06-15 08:43:00,62.6,48.0,29.84,NNE,22,4.0,7.0,60,0.00,,,0.00,Rainwise IP-100,2013-06-15 12:43:00,
2013-06-15 08:48:00,63.0,48.0,29.84,NNW,337,6.0,6.0,59,0.00,,,0.00,Rainwise IP-100,2013-06-15 12:48:00,
2013-06-15 08:53:00,62.3,47.0,29.84,NW,315,9.0,9.0,58,0.00,,,0.00,Rainwise IP-100,2013-06-15 12:53:00,
2013-06-15 08:58:00,61.7,47.0,29.84,NNW,337,7.0,7.0,58,0.00,,,0.00,Rainwise IP-100,2013-06-15 12:58:00,
2013-06-15 09:03:00,61.7,46.0,29.84,NNW,337,0.0,3.0,57,0.00,,,0.00,Rainwise IP-100,2013-06-15 13:03:00,
2013-06-15 09:08:00,61.7,46.0,29.84,NNW,337,7.0,7.0,57,0.00,,,0.00,Rainwise IP-100,2013-06-15 13:08:00,
2013-06-15 09:13:00,62.0,47.0,29.84,NW,315,5.0,5.0,57,0.00,,,0.00,Rainwise IP-100,2013-06-15 13:13:00,
2013-06-15 09:18:00,62.4,47.0,29.83,NNW,337,6.0,0.0,57,0.00,,,0.00,Rainwise IP-100,2013-06-15 13:18:00,
2013-06-15 09:23:00,62.9,47.0,29.84,WNW,292,6.0,6.0,57,0.00,,,0.00,Rainwise IP-100,2013-06-15 13:23:00,
2013-06-15 09:28:00,63.4,47.0,29.84,NNW,337,3.0,3.0,56,0.00,,,0.00,Rainwise IP-100,2013-06-15 13:28:00,
2013-06-15 09:33:00,63.6,47.0,29.84,NW,315,7.0,7.0,56,0.00,,,0.00,Rainwise IP-100,2013-06-15 13:33:00,
2013-06-15 09:38:00,63.7,47.0,29.85,NNW,337,8.0,0.0,56,0.00,,,0.00,Rainwise IP-100,2013-06-15 13:38:00,
2013-06-15 09:43:00,63.8,47.0,29.84,NNW,337,4.0,0.0,56,0.00,,,0.00,Rainwise IP-100,2013-06-15 13:43:00,
2013-06-15 09:48:00,63.6,48.0,29.85,NNW,337,5.0,8.0,58,0.00,,,0.00,Rainwise IP-100,2013-06-15 13:48:00,
2013-06-15 09:53:00,63.6,48.0,29.85,NNW,337,3.0,3.0,58,0.00,,,0.00,Rainwise IP-100,2013-06-15 13:53:00,
2013-06-15 09:58:00,64.6,49.0,29.85,NNW,337,4.0,9.0,57,0.00,,,0.00,Rainwise IP-100,2013-06-15 13:58:00,
2013-06-15 10:03:00,65.8,48.0,29.84,NNW,337,5.0,5.0,54,0.00,,,0.00,Rainwise IP-100,2013-06-15 14:03:00,
2013-06-15 10:08:00,66.4,48.0,29.85,NNW,337,6.0,0.0,52,0.00,,,0.00,Rainwise IP-100,2013-06-15 14:08:00,
2013-06-15 10:13:00,66.4,48.0,29.85,NNE,22,7.0,7.0,52,0.00,,,0.00,Rainwise IP-100,2013-06-15 14:13:00,
2013-06-15 10:18:00,66.3,48.0,29.85,NNE,22,7.0,7.0,52,0.00,,,0.00,Rainwise IP-100,2013-06-15 14:18:00,
2013-06-15 10:23:00,66.4,47.0,29.85,NW,315,9.0,9.0,51,0.00,,,0.00,Rainwise IP-100,2013-06-15 14:23:00,
2013-06-15 10:28:00,66.5,47.0,29.85,NNW,337,2.0,3.0,50,0.00,,,0.00,Rainwise IP-100,2013-06-15 14:28:00,
2013-06-15 10:33:00,66.7,47.0,29.85,NNW,337,6.0,6.0,50,0.00,,,0.00,Rainwise IP-100,2013-06-15 14:33:00,
2013-06-15 10:38:00,67.0,48.0,29.85,NNW,337,5.0,5.0,50,0.00,,,0.00,Rainwise IP-100,2013-06-15 14:38:00,
2013-06-15 10:43:00,67.2,48.0,29.85,NNW,337,7.0,7.0,50,0.00,,,0.00,Rainwise IP-100,2013-06-15 14:43:00,
2013-06-15 10:48:00,67.4,47.0,29.85,NNW,337,5.0,5.0,49,0.00,,,0.00,Rainwise IP-100,2013-06-15 14:48:00,
2013-06-15 10:53:00,67.1,48.0,29.85,NNW,337,3.0,3.0,50,0.00,,,0.00,Rainwise IP-100,2013-06-15 14:53:00,
2013-06-15 10:58:00,66.9,48.0,29.85,NNE,22,9.0,0.0,51,0.00,,,0.00,Rainwise IP-100,2013-06-15 14:58:00,
2013-06-15 11:03:00,67.6,49.0,29.85,North,360,4.0,4.0,51,0.00,,,0.00,Rainwise IP-100,2013-06-15 15:03:00,
2013-06-15 11:08:00,68.0,48.0,29.85,WNW,292,0.0,0.0,49,0.00,,,0.00,Rainwise IP-100,2013-06-15 15:08:00,
2013-06-15 11:13:00,67.2,48.0,29.85,NW,315,4.0,4.0,50,0.00,,,0.00,Rainwise IP-100,2013-06-15 15:13:00,
2013-06-15 11:18:00,66.2,47.0,29.85,NNW,337,0.0,2.0,51,0.00,,,0.00,Rainwise IP-100,2013-06-15 15:18:00,
2013-06-15 11:23:00,66.2,47.0,29.85,NNW,337,6.0,6.0,51,0.00,,,0.00,Rainwise IP-100,2013-06-15 15:23:00,
2013-06-15 11:28:00,66.8,47.0,29.85,NW,315,6.0,6.0,48,0.00,,,0.00,Rainwise IP-100,2013-06-15 15:28:00,
2013-06-15 11:33:00,67.2,47.0,29.85,NNW,337,3.0,3.0,48,0.00,,,0.00,Rainwise IP-100,2013-06-15 15:33:00,
2013-06-15 11:38:00,67.7,47.0,29.85,NNW,337,4.0,9.0,49,0.00,,,0.00,Rainwise IP-100,2013-06-15 15:38:00,
2013-06-15 11:43:00,67.9,48.0,29.85,NNW,337,6.0,6.0,49,0.00,,,0.00,Rainwise IP-100,2013-06-15 15:43:00,
2013-06-15 11:48:00,67.5,47.0,29.85,NNW,337,6.0,6.0,49,0.00,,,0.00,Rainwise IP-100,2013-06-15 15:48:00,
2013-06-15 11:53:00,67.2,47.0,29.85,NNW,337,0.0,3.0,48,0.00,,,0.00,Rainwise IP-100,2013-06-15 15:53:00,
2013-06-15 11:58:00,67.1,46.0,29.84,NNE,22,7.0,7.0,46,0.00,,,0.00,Rainwise IP-100,2013-06-15 15:58:00,
2013-06-15 12:03:00,67.5,47.0,29.85,NNW,337,5.0,5.0,47,0.00,,,0.00,Rainwise IP-100,2013-06-15 16:03:00,
2013-06-15 12:08:00,68.2,47.0,29.85,WNW,292,6.0,6.0,46,0.00,,,0.00,Rainwise IP-100,2013-06-15 16:08:00,
2013-06-15 12:13:00,68.0,47.0,29.85,NW,315,5.0,5.0,46,0.00,,,0.00,Rainwise IP-100,2013-06-15 16:13:00,
2013-06-15 12:18:00,67.7,47.0,29.85,NNW,337,5.0,5.0,47,0.00,,,0.00,Rainwise IP-100,2013-06-15 16:18:00,
2013-06-15 12:23:00,67.5,47.0,29.85,NW,315,9.0,0.0,48,0.00,,,0.00,Rainwise IP-100,2013-06-15 16:23:00,
2013-06-15 12:28:00,67.7,47.0,29.84,WNW,292,5.0,0.0,47,0.00,,,0.00,Rainwise IP-100,2013-06-15 16:28:00,
2013-06-15 12:33:00,68.8,47.0,29.84,NW,315,0.0,1.0,45,0.00,,,0.00,Rainwise IP-100,2013-06-15 16:33:00,
2013-06-15 12:38:00,69.4,46.0,29.84,NNW,337,4.0,0.0,43,0.00,,,0.00,Rainwise IP-100,2013-06-15 16:38:00,
2013-06-15 12:43:00,69.2,46.0,29.85,NNW,337,6.0,6.0,43,0.00,,,0.00,Rainwise IP-100,2013-06-15 16:43:00,
2013-06-15 12:48:00,69.1,46.0,29.85,NNE,22,5.0,5.0,44,0.00,,,0.00,Rainwise IP-100,2013-06-15 16:48:00,
2013-06-15 12:53:00,69.5,46.0,29.85,WNW,292,4.0,0.0,43,0.00,,,0.00,Rainwise IP-100,2013-06-15 16:53:00,
2013-06-15 12:58:00,69.9,45.0,29.85,NW,315,9.0,9.0,41,0.00,,,0.00,Rainwise IP-100,2013-06-15 16:58:00,
2013-06-15 13:03:00,70.3,45.0,29.85,NNW,337,6.0,6.0,40,0.00,,,0.00,Rainwise IP-100,2013-06-15 17:03:00,
2013-06-15 13:08:00,70.8,44.0,29.84,NNW,337,0.0,4.0,39,0.00,,,0.00,Rainwise IP-100,2013-06-15 17:08:00,
2013-06-15 13:13:00,70.4,44.0,29.84,NNW,337,9.0,9.0,39,0.00,,,0.00,Rainwise IP-100,2013-06-15 17:13:00,
2013-06-15 13:18:00,70.2,44.0,29.85,NW,315,0.0,6.0,39,0.00,,,0.00,Rainwise IP-100,2013-06-15 17:18:00,
2013-06-15 13:23:00,70.4,44.0,29.84,NNW,337,6.0,6.0,38,0.00,,,0.00,Rainwise IP-100,2013-06-15 17:23:00,
2013-06-15 13:28:00,70.9,44.0,29.84,NNW,337,0.0,3.0,38,0.00,,,0.00,Rainwise IP-100,2013-06-15 17:28:00,
2013-06-15 13:33:00,70.9,44.0,29.84,NNW,337,3.0,9.0,38,0.00,,,0.00,Rainwise IP-100,2013-06-15 17:33:00,
2013-06-15 13:38:00,70.5,44.0,29.84,NNW,337,0.0,4.0,39,0.00,,,0.00,Rainwise IP-100,2013-06-15 17:38:00,
2013-06-15 13:43:00,70.7,45.0,29.84,NNW,337,6.0,6.0,40,0.00,,,0.00,Rainwise IP-100,2013-06-15 17:43:00,
2013-06-15 13:48:00,71.1,44.0,29.84,NNW,337,6.0,6.0,38,0.00,,,0.00,Rainwise IP-100,2013-06-15 17:48:00,
2013-06-15 13:53:00,71.2,44.0,29.84,NNW,337,5.0,5.0,38,0.00,,,0.00,Rainwise IP-100,2013-06-15 17:53:00,
2013-06-15 13:58:00,71.3,44.0,29.83,NW,315,7.0,7.0,38,0.00,,,0.00,Rainwise IP-100,2013-06-15 17:58:00,
2013-06-15 14:03:00,71.7,44.0,29.84,NNW,337,8.0,8.0,37,0.00,,,0.00,Rainwise IP-100,2013-06-15 18:03:00,
2013-06-15 14:08:00,71.8,43.0,29.84,NW,315,0.0,8.0,36,0.00,,,0.00,Rainwise IP-100,2013-06-15 18:08:00,
2013-06-15 14:13:00,71.8,43.0,29.84,NNW,337,8.0,8.0,36,0.00,,,0.00,Rainwise IP-100,2013-06-15 18:13:00,
2013-06-15 14:18:00,72.1,43.0,29.84,NNW,337,0.0,4.0,36,0.00,,,0.00,Rainwise IP-100,2013-06-15 18:18:00,
2013-06-15 14:23:00,71.9,43.0,29.84,WNW,292,7.0,7.0,36,0.00,,,0.00,Rainwise IP-100,2013-06-15 18:23:00,
2013-06-15 14:28:00,71.5,43.0,29.84,NW,315,3.0,6.0,36,0.00,,,0.00,Rainwise IP-100,2013-06-15 18:28:00,
2013-06-15 14:33:00,71.9,44.0,29.84,WNW,292,7.0,7.0,37,0.00,,,0.00,Rainwise IP-100,2013-06-15 18:33:00,
2013-06-15 14:38:00,72.8,44.0,29.84,NNW,337,8.0,8.0,36,0.00,,,0.00,Rainwise IP-100,2013-06-15 18:38:00,
2013-06-15 14:43:00,73.8,44.0,29.83,WNW,292,0.0,3.0,34,0.00,,,0.00,Rainwise IP-100,2013-06-15 18:43:00,
2013-06-15 14:48:00,74.0,44.0,29.83,WNW,292,6.0,6.0,34,0.00,,,0.00,Rainwise IP-100,2013-06-15 18:48:00,
2013-06-15 14:53:00,73.5,44.0,29.83,WNW,292,3.0,3.0,34,0.00,,,0.00,Rainwise IP-100,2013-06-15 18:53:00,
2013-06-15 14:58:00,73.2,43.0,29.84,WNW,292,3.0,3.0,34,0.00,,,0.00,Rainwise IP-100,2013-06-15 18:58:00,
2013-06-15 15:03:00,73.5,44.0,29.84,WNW,292,5.0,9.0,34,0.00,,,0.00,Rainwise IP-100,2013-06-15 19:03:00,
2013-06-15 15:08:00,74.2,43.0,29.83,NNW,337,7.0,7.0,33,0.00,,,0.00,Rainwise IP-100,2013-06-15 19:08:00,
2013-06-15 15:13:00,74.1,43.0,29.84,NNW,337,8.0,8.0,33,0.00,,,0.00,Rainwise IP-100,2013-06-15 19:13:00,
2013-06-15 15:18:00,73.6,43.0,29.83,WSW,247,7.0,0.0,33,0.00,,,0.00,Rainwise IP-100,2013-06-15 19:18:00,
2013-06-15 15:23:00,74.2,44.0,29.83,NW,315,4.0,4.0,34,0.00,,,0.00,Rainwise IP-100,2013-06-15 19:23:00,
2013-06-15 15:28:00,74.9,45.0,29.83,NNW,337,6.0,6.0,34,0.00,,,0.00,Rainwise IP-100,2013-06-15 19:28:00,
2013-06-15 15:33:00,74.9,44.0,29.83,NNW,337,0.0,6.0,33,0.00,,,0.00,Rainwise IP-100,2013-06-15 19:33:00,
2013-06-15 15:38:00,75.0,43.0,29.83,West,270,5.0,5.0,32,0.00,,,0.00,Rainwise IP-100,2013-06-15 19:38:00,
2013-06-15 15:43:00,75.0,43.0,29.83,NNW,337,8.0,8.0,32,0.00,,,0.00,Rainwise IP-100,2013-06-15 19:43:00,
2013-06-15 15:48:00,74.0,43.0,29.83,NNW,337,0.0,6.0,33,0.00,,,0.00,Rainwise IP-100,2013-06-15 19:48:00,
2013-06-15 15:53:00,73.4,42.0,29.83,NW,315,8.0,8.0,33,0.00,,,0.00,Rainwise IP-100,2013-06-15 19:53:00,
2013-06-15 15:58:00,73.2,42.0,29.83,NNW,337,7.0,7.0,33,0.00,,,0.00,Rainwise IP-100,2013-06-15 19:58:00,
2013-06-15 16:03:00,73.1,42.0,29.83,NW,315,8.0,8.0,33,0.00,,,0.00,Rainwise IP-100,2013-06-15 20:03:00,
2013-06-15 16:08:00,73.6,42.0,29.82,NNW,337,0.0,4.0,32,0.00,,,0.00,Rainwise IP-100,2013-06-15 20:08:00,
2013-06-15 16:13:00,73.7,42.0,29.82,WNW,292,7.0,7.0,32,0.00,,,0.00,Rainwise IP-100,2013-06-15 20:13:00,
2013-06-15 16:18:00,73.0,42.0,29.82,NNW,337,7.0,7.0,33,0.00,,,0.00,Rainwise IP-100,2013-06-15 20:18:00,
2013-06-15 16:23:00,72.7,43.0,29.82,WNW,292,3.0,3.0,34,0.00,,,0.00,Rainwise IP-100,2013-06-15 20:23:00,
2013-06-15 16:28:00,73.3,43.0,29.82,SSW,202,4.0,4.0,34,0.00,,,0.00,Rainwise IP-100,2013-06-15 20:28:00,
2013-06-15 16:33:00,74.0,43.0,29.82,WNW,292,2.0,4.0,33,0.00,,,0.00,Rainwise IP-100,2013-06-15 20:33:00,
2013-06-15 16:38:00,74.3,43.0,29.82,WNW,292,5.0,5.0,32,0.00,,,0.00,Rainwise IP-100,2013-06-15 20:38:00,
2013-06-15 16:43:00,74.3,43.0,29.82,NNW,337,4.0,0.0,32,0.00,,,0.00,Rainwise IP-100,2013-06-15 20:43:00,
2013-06-15 16:48:00,74.3,43.0,29.82,WNW,292,4.0,9.0,33,0.00,,,0.00,Rainwise IP-100,2013-06-15 20:48:00,
2013-06-15 16:53:00,73.8,43.0,29.82,WNW,292,3.0,9.0,33,0.00,,,0.00,Rainwise IP-100,2013-06-15 20:53:00,
2013-06-15 16:58:00,73.2,43.0,29.82,NW,315,6.0,9.0,34,0.00,,,0.00,Rainwise IP-100,2013-06-15 20:58:00,
2013-06-15 17:03:00,72.9,43.0,29.82,WNW,292,2.0,8.0,34,0.00,,,0.00,Rainwise IP-100,2013-06-15 21:03:00,
2013-06-15 17:08:00,72.9,43.0,29.82,WNW,292,2.0,5.0,34,0.00,,,0.00,Rainwise IP-100,2013-06-15 21:08:00,
2013-06-15 17:13:00,72.8,43.0,29.82,WNW,292,3.0,5.0,35,0.00,,,0.00,Rainwise IP-100,2013-06-15 21:13:00,
2013-06-15 17:18:00,72.4,44.0,29.83,NW,315,1.0,4.0,36,0.00,,,0.00,Rainwise IP-100,2013-06-15 21:18:00,
2013-06-15 17:23:00,72.2,44.0,29.82,SSW,202,0.0,7.0,36,0.00,,,0.00,Rainwise IP-100,2013-06-15 21:23:00,
2013-06-15 17:28:00,72.2,45.0,29.82,WNW,292,1.0,4.0,37,0.00,,,0.00,Rainwise IP-100,2013-06-15 21:28:00,
2013-06-15 17:33:00,72.1,44.0,29.82,NW,315,4.0,6.0,37,0.00,,,0.00,Rainwise IP-100,2013-06-15 21:33:00,
2013-06-15 17:38:00,72.0,43.0,29.82,WNW,292,2.0,9.0,36,0.00,,,0.00,Rainwise IP-100,2013-06-15 21:38:00,
2013-06-15 17:43:00,71.9,43.0,29.83,WNW,292,3.0,7.0,36,0.00,,,0.00,Rainwise IP-100,2013-06-15 21:43:00,
2013-06-15 17:48:00,72.0,43.0,29.83,WSW,247,5.0,0.0,36,0.00,,,0.00,Rainwise IP-100,2013-06-15 21:48:00,
2013-06-15 17:53:00,72.5,43.0,29.83,WNW,292,3.0,6.0,35,0.00,,,0.00,Rainwise IP-100,2013-06-15 21:53:00,
2013-06-15 17:58:00,72.7,43.0,29.82,WSW,247,3.0,8.0,35,0.00,,,0.00,Rainwise IP-100,2013-06-15 21:58:00,
2013-06-15 18:03:00,72.3,44.0,29.83,SW,225,1.0,7.0,36,0.00,,,0.00,Rainwise IP-100,2013-06-15 22:03:00,
2013-06-15 18:08:00,71.9,45.0,29.83,WSW,247,2.0,4.0,38,0.00,,,0.00,Rainwise IP-100,2013-06-15 22:08:00,
2013-06-15 18:13:00,71.6,45.0,29.83,SSW,202,3.0,8.0,39,0.00,,,0.00,Rainwise IP-100,2013-06-15 22:13:00,
2013-06-15 18:18:00,71.3,46.0,29.83,WSW,247,3.0,8.0,40,0.00,,,0.00,Rainwise IP-100,2013-06-15 22:18:00,
2013-06-15 18:23:00,71.5,46.0,29.83,WSW,247,4.0,0.0,40,0.00,,,0.00,Rainwise IP-100,2013-06-15 22:23:00,
2013-06-15 18:28:00,71.6,46.0,29.83,SW,225,4.0,7.0,40,0.00,,,0.00,Rainwise IP-100,2013-06-15 22:28:00,
2013-06-15 18:33:00,71.4,46.0,29.83,SSW,202,6.0,6.0,40,0.00,,,0.00,Rainwise IP-100,2013-06-15 22:33:00,
2013-06-15 18:38:00,71.0,45.0,29.83,SW,225,3.0,7.0,40,0.00,,,0.00,Rainwise IP-100,2013-06-15 22:38:00,
2013-06-15 18:43:00,70.9,45.0,29.83,SSW,202,6.0,8.0,40,0.00,,,0.00,Rainwise IP-100,2013-06-15 22:43:00,
2013-06-15 18:48:00,71.1,46.0,29.84,SSW,202,2.0,8.0,41,0.00,,,0.00,Rainwise IP-100,2013-06-15 22:48:00,
2013-06-15 18:53:00,71.3,47.0,29.84,SW,225,2.0,7.0,41,0.00,,,0.00,Rainwise IP-100,2013-06-15 22:53:00,
2013-06-15 18:58:00,71.3,47.0,29.83,WSW,247,1.0,8.0,41,0.00,,,0.00,Rainwise IP-100,2013-06-15 22:58:00,
2013-06-15 19:03:00,71.1,46.0,29.83,WNW,292,2.0,8.0,41,0.00,,,0.00,Rainwise IP-100,2013-06-15 23:03:00,
2013-06-15 19:08:00,70.9,46.0,29.84,SW,225,6.0,7.0,41,0.00,,,0.00,Rainwise IP-100,2013-06-15 23:08:00,
2013-06-15 19:13:00,70.5,47.0,29.84,NNW,337,0.0,7.0,42,0.00,,,0.00,Rainwise IP-100,2013-06-15 23:13:00,
2013-06-15 19:18:00,70.2,46.0,29.84,WNW,292,4.0,8.0,42,0.00,,,0.00,Rainwise IP-100,2013-06-15 23:18:00,
2013-06-15 19:23:00,70.3,45.0,29.84,WSW,247,2.0,8.0,41,0.00,,,0.00,Rainwise IP-100,2013-06-15 23:23:00,
2013-06-15 19:28:00,70.3,44.0,29.84,WSW,247,2.0,7.0,39,0.00,,,0.00,Rainwise IP-100,2013-06-15 23:28:00,
2013-06-15 19:33:00,70.1,44.0,29.84,WNW,292,6.0,7.0,39,0.00,,,0.00,Rainwise IP-100,2013-06-15 23:33:00,
2013-06-15 19:38:00,69.9,44.0,29.84,WSW,247,2.0,6.0,39,0.00,,,0.00,Rainwise IP-100,2013-06-15 23:38:00,
2013-06-15 19:43:00,69.8,43.0,29.85,WSW,247,7.0,7.0,39,0.00,,,0.00,Rainwise IP-100,2013-06-15 23:43:00,
2013-06-15 19:48:00,69.4,45.0,29.85,WSW,247,5.0,6.0,41,0.00,,,0.00,Rainwise IP-100,2013-06-15 23:48:00,
2013-06-15 19:53:00,68.7,46.0,29.85,SSW,202,3.0,8.0,44,0.00,,,0.00,Rainwise IP-100,2013-06-15 23:53:00,
2013-06-15 19:58:00,67.9,47.0,29.85,SW,225,2.0,6.0,46,0.00,,,0.00,Rainwise IP-100,2013-06-15 23:58:00,
2013-06-15 20:03:00,67.4,47.0,29.85,WSW,247,2.0,7.0,47,0.00,,,0.00,Rainwise IP-100,2013-06-16 00:03:00,
2013-06-15 20:08:00,67.1,47.0,29.85,SW,225,2.0,5.0,48,0.00,,,0.00,Rainwise IP-100,2013-06-16 00:08:00,
2013-06-15 20:13:00,66.8,47.0,29.85,WSW,247,0.0,5.0,49,0.00,,,0.00,Rainwise IP-100,2013-06-16 00:13:00,
2013-06-15 20:18:00,66.5,47.0,29.85,WSW,247,3.0,5.0,49,0.00,,,0.00,Rainwise IP-100,2013-06-16 00:18:00,
2013-06-15 20:23:00,66.1,47.0,29.85,WSW,247,0.0,6.0,50,0.00,,,0.00,Rainwise IP-100,2013-06-16 00:23:00,
2013-06-15 20:28:00,65.8,47.0,29.86,WSW,247,2.0,5.0,50,0.00,,,0.00,Rainwise IP-100,2013-06-16 00:28:00,
2013-06-15 20:33:00,65.5,47.0,29.86,SSW,202,0.0,5.0,51,0.00,,,0.00,Rainwise IP-100,2013-06-16 00:33:00,
2013-06-15 20:38:00,65.4,47.0,29.86,WSW,247,1.0,7.0,50,0.00,,,0.00,Rainwise IP-100,2013-06-16 00:38:00,
2013-06-15 20:43:00,65.5,46.0,29.86,SW,225,3.0,6.0,49,0.00,,,0.00,Rainwise IP-100,2013-06-16 00:43:00,
2013-06-15 20:48:00,65.6,46.0,29.87,SW,225,4.0,6.0,49,0.00,,,0.00,Rainwise IP-100,2013-06-16 00:48:00,
2013-06-15 20:53:00,65.4,46.0,29.87,SSW,202,4.0,6.0,49,0.00,,,0.00,Rainwise IP-100,2013-06-16 00:53:00,
2013-06-15 20:58:00,65.4,46.0,29.87,SSW,202,5.0,7.0,49,0.00,,,0.00,Rainwise IP-100,2013-06-16 00:58:00,
2013-06-15 21:03:00,65.5,46.0,29.88,WSW,247,4.0,7.0,49,0.00,,,0.00,Rainwise IP-100,2013-06-16 01:03:00,
2013-06-15 21:08:00,65.3,45.0,29.88,WSW,247,4.0,8.0,49,0.00,,,0.00,Rainwise IP-100,2013-06-16 01:08:00,
2013-06-15 21:13:00,64.8,46.0,29.88,SW,225,4.0,8.0,51,0.00,,,0.00,Rainwise IP-100,2013-06-16 01:13:00,
2013-06-15 21:18:00,64.4,47.0,29.88,WSW,247,2.0,7.0,52,0.00,,,0.00,Rainwise IP-100,2013-06-16 01:18:00,
2013-06-15 21:23:00,64.2,47.0,29.88,SW,225,4.0,7.0,53,0.00,,,0.00,Rainwise IP-100,2013-06-16 01:23:00,
2013-06-15 21:28:00,63.8,47.0,29.89,WSW,247,2.0,9.0,54,0.00,,,0.00,Rainwise IP-100,2013-06-16 01:28:00,
2013-06-15 21:33:00,63.6,47.0,29.88,West,270,6.0,8.0,54,0.00,,,0.00,Rainwise IP-100,2013-06-16 01:33:00,
2013-06-15 21:38:00,63.6,47.0,29.89,WSW,247,3.0,7.0,54,0.00,,,0.00,Rainwise IP-100,2013-06-16 01:38:00,
2013-06-15 21:43:00,63.6,47.0,29.89,SSW,202,6.0,8.0,54,0.00,,,0.00,Rainwise IP-100,2013-06-16 01:43:00,
2013-06-15 21:48:00,63.3,47.0,29.89,WSW,247,4.0,7.0,55,0.00,,,0.00,Rainwise IP-100,2013-06-16 01:48:00,
2013-06-15 21:53:00,63.1,47.0,29.89,SSW,202,6.0,7.0,55,0.00,,,0.00,Rainwise IP-100,2013-06-16 01:53:00,
2013-06-15 21:58:00,63.0,47.0,29.89,SSW,202,5.0,7.0,55,0.00,,,0.00,Rainwise IP-100,2013-06-16 01:58:00,
2013-06-15 22:03:00,63.1,47.0,29.89,SW,225,4.0,0.0,55,0.00,,,0.00,Rainwise IP-100,2013-06-16 02:03:00,
2013-06-15 22:08:00,63.4,47.0,29.89,WSW,247,3.0,9.0,54,0.00,,,0.00,Rainwise IP-100,2013-06-16 02:08:00,
2013-06-15 22:13:00,63.5,47.0,29.89,SSW,202,4.0,0.0,54,0.00,,,0.00,Rainwise IP-100,2013-06-16 02:13:00,
2013-06-15 22:18:00,63.8,46.0,29.89,WSW,247,7.0,0.0,53,0.00,,,0.00,Rainwise IP-100,2013-06-16 02:18:00,
2013-06-15 22:23:00,64.0,47.0,29.89,SSW,202,7.0,9.0,53,0.00,,,0.00,Rainwise IP-100,2013-06-16 02:23:00,
2013-06-15 22:28:00,63.9,47.0,29.89,SSW,202,8.0,9.0,53,0.00,,,0.00,Rainwise IP-100,2013-06-16 02:28:00,
2013-06-15 22:33:00,63.7,46.0,29.89,SSW,202,5.0,0.0,53,0.00,,,0.00,Rainwise IP-100,2013-06-16 02:33:00,
2013-06-15 22:38:00,63.6,47.0,29.89,SSW,202,8.0,0.0,54,0.00,,,0.00,Rainwise IP-100,2013-06-16 02:38:00,
2013-06-15 22:43:00,63.5,47.0,29.89,WNW,292,8.0,0.0,54,0.00,,,0.00,Rainwise IP-100,2013-06-16 02:43:00,
2013-06-15 22:48:00,63.5,46.0,29.89,SSW,202,5.0,0.0,53,0.00,,,0.00,Rainwise IP-100,2013-06-16 02:48:00,
2013-06-15 22:53:00,63.6,46.0,29.89,WSW,247,4.0,0.0,53,0.00,,,0.00,Rainwise IP-100,2013-06-16 02:53:00,
2013-06-15 22:58:00,63.7,46.0,29.89,WSW,247,3.0,9.0,53,0.00,,,0.00,Rainwise IP-100,2013-06-16 02:58:00,
2013-06-15 23:03:00,63.7,46.0,29.90,WSW,247,2.0,3.0,53,0.00,,,0.00,Rainwise IP-100,2013-06-16 03:03:00,
2013-06-15 23:08:00,63.5,46.0,29.89,WNW,292,4.0,0.0,53,0.00,,,0.00,Rainwise IP-100,2013-06-16 03:08:00,
2013-06-15 23:13:00,63.5,46.0,29.89,WNW,292,5.0,5.0,53,0.00,,,0.00,Rainwise IP-100,2013-06-16 03:13:00,
2013-06-15 23:18:00,63.4,46.0,29.90,SSW,202,5.0,5.0,53,0.00,,,0.00,Rainwise IP-100,2013-06-16 03:18:00,
2013-06-15 23:23:00,63.1,46.0,29.90,West,270,5.0,0.0,54,0.00,,,0.00,Rainwise IP-100,2013-06-16 03:23:00,
2013-06-15 23:28:00,62.8,46.0,29.90,SW,225,4.0,8.0,55,0.00,,,0.00,Rainwise IP-100,2013-06-16 03:28:00,
2013-06-15 23:33:00,62.6,46.0,29.89,SSW,202,5.0,8.0,55,0.00,,,0.00,Rainwise IP-100,2013-06-16 03:33:00,
2013-06-15 23:38:00,62.5,47.0,29.90,WSW,247,5.0,9.0,56,0.00,,,0.00,Rainwise IP-100,2013-06-16 03:38:00,
2013-06-15 23:43:00,62.7,46.0,29.90,SSW,202,6.0,6.0,55,0.00,,,0.00,Rainwise IP-100,2013-06-16 03:43:00,
2013-06-15 23:48:00,62.9,47.0,29.90,WSW,247,4.0,4.0,55,0.00,,,0.00,Rainwise IP-100,2013-06-16 03:48:00,
2013-06-15 23:53:00,63.0,47.0,29.90,WSW,247,4.0,0.0,55,0.00,,,0.00,Rainwise IP-100,2013-06-16 03:53:00,
2013-06-15 23:58:00,62.9,47.0,29.89,WSW,247,3.0,0.0,55,0.00,,,0.00,Rainwise IP-100,2013-06-16 03:58:00,